Camp Douglas, WI

11:53 AM CST on February 28, 2017 (GMT -0600)
Volk

Weather History for KVOK - April, 2013

Change the Weather History Date:

Monday, April 22, 2013

  Actual Average Record
Temperature  
Mean Temperature 46 °F -  
Max Temperature 50 °F 58 °F 81 °F (2007)
Min Temperature 43 °F 38 °F 27 °F (2015)
Degree Days  
Heating Degree Days 18    
Moisture  
Dew Point 44 °F    
Average Humidity 95    
Maximum Humidity 100    
Minimum Humidity 66    
Precipitation  
Precipitation 0.02 in - - ()
Sea Level Pressure  
Sea Level Pressure 30.04 in    
Wind  
Wind Speed 5 mph (SSW)    
Max Wind Speed 13 mph    
Max Gust Speed 21 mph    
Visibility 4 miles    
Events Fog , Rain    
Averages and records for this station are not official NWS values.
T = Trace of Precipitation, MM = Missing Value Source: NWS Daily Summary

Daily Weather History Graph

Daily Weather History Graph

Search for Another Location

Airport or City:

Trip Planner

Search our weather history database for the weather conditions in past years. The results will help you decide how hot, cold, wet, or windy it might be!

Date:

Astronomy

Apr. 22, 2013 Rise Set
Actual Time 6:06 AM CDT 7:53 PM CDT
Civil Twilight 5:35 AM CDT 8:24 PM CDT
Nautical Twilight 4:58 AM CDT 9:02 PM CDT
Astronomical Twilight 4:17 AM CDT 9:42 PM CDT
Moon 4:37 PM CDT (4/22) 4:07 AM CDT (4/22)
Length of Visible Light 14h 49m
Length of Day
13h 47m
Waxing Gibbous, 88% of the Moon is Illuminated
Apr 22
Waxing Gibbous
Apr 25
Full
May 2
Last Quarter
May 9
New
May 17
First Quarter

Hourly Weather History & Observations

Time (CDT) Temp. Windchill Dew Point Humidity Pressure Visibility Wind Dir Wind Speed Gust Speed Precip Events Conditions
12:55 AM 48.9 °F - 38.1 °F 66% 30.19 in 10.0 mi South 5.8 mph - N/A   Mostly Cloudy
1:52 AM 48.2 °F - 39.2 °F 71% 30.19 in 10.0 mi South 10.4 mph 20.7 mph N/A Rain Light Rain
1:55 AM 48.4 °F - 39.0 °F 70% 30.19 in 10.0 mi South 11.5 mph 20.7 mph 0.00 in Rain Light Rain
2:08 AM 48.2 °F - 39.2 °F 71% 30.19 in 10.0 mi South 11.5 mph - N/A   Mostly Cloudy
2:52 AM 48.2 °F - 39.2 °F 71% 30.19 in 10.0 mi South 8.1 mph - N/A Rain Light Rain
2:55 AM 47.3 °F - 39.4 °F 74% 30.19 in 10.0 mi South 8.1 mph - 0.00 in Rain Light Rain
3:29 AM 46.4 °F 41.5 °F 41.0 °F 81% 30.19 in 10.0 mi SSW 10.4 mph - N/A   Partly Cloudy
3:55 AM 46.2 °F 40.5 °F 41.4 °F 83% 30.19 in 10.0 mi South 12.7 mph 17.3 mph 0.01 in   Scattered Clouds
4:04 AM 46.4 °F 42.4 °F 41.0 °F 81% 30.19 in 10.0 mi South 8.1 mph - N/A Rain Light Rain
4:16 AM 46.4 °F 41.5 °F 42.8 °F 87% 30.18 in 10.0 mi SSE 10.4 mph - N/A   Scattered Clouds
4:24 AM 44.6 °F 39.2 °F 42.8 °F 93% 30.18 in 10.0 mi SSE 10.4 mph - N/A Rain Light Rain
4:43 AM 44.6 °F 38.8 °F 42.8 °F 93% 30.17 in 10.0 mi South 11.5 mph - N/A   Mostly Cloudy
4:55 AM 45.3 °F 40.1 °F 42.6 °F 90% 30.17 in 10.0 mi South 10.4 mph - 0.01 in   Scattered Clouds
5:55 AM 44.6 °F 38.8 °F 42.8 °F 93% 30.17 in 10.0 mi South 11.5 mph - N/A   Overcast
6:55 AM 44.6 °F 40.7 °F 41.0 °F 87% 30.18 in 10.0 mi South 6.9 mph - N/A   Overcast
7:55 AM 44.6 °F 39.2 °F 41.0 °F 87% 30.17 in 10.0 mi South 10.4 mph - N/A   Light Drizzle
8:14 AM 44.6 °F 40.7 °F 41.0 °F 87% 30.15 in 10.0 mi SSE 6.9 mph - N/A   Overcast
8:55 AM 46.4 °F 44.3 °F 41.0 °F 81% 30.18 in 10.0 mi SSE 4.6 mph - N/A   Overcast
9:21 AM 46.4 °F 44.3 °F 41.0 °F 81% 30.15 in 10.0 mi Variable 4.6 mph - N/A Rain Light Rain
9:55 AM 46.4 °F - 41.0 °F 81% 30.18 in 10.0 mi Calm Calm - N/A Rain Light Rain
10:55 AM 46.4 °F 44.3 °F 42.8 °F 87% 30.18 in 10.0 mi South 4.6 mph - N/A Rain Light Rain
11:11 AM 46.4 °F 45.2 °F 42.8 °F 87% 30.17 in 10.0 mi South 3.5 mph - N/A Rain Light Rain
11:55 AM 46.4 °F - 42.8 °F 87% 30.18 in 10.0 mi Calm Calm - N/A Rain Light Rain
12:55 PM 48.2 °F - 44.6 °F 87% 30.16 in 10.0 mi East 5.8 mph - N/A Rain Light Rain
1:55 PM 48.2 °F - 44.6 °F 87% 30.14 in 10.0 mi East 3.5 mph - N/A Rain Light Rain
2:55 PM 48.2 °F - 46.4 °F 93% 30.12 in 10.0 mi ENE 3.5 mph - N/A Rain Light Rain
3:11 PM 48.2 °F - 48.2 °F 100% 30.08 in 10.0 mi ENE 6.9 mph - N/A   Overcast
3:55 PM 50.0 °F - 48.2 °F 94% 30.07 in 10.0 mi ENE 3.5 mph - N/A   Overcast
4:55 PM 50.4 °F - 48.7 °F 94% 30.04 in 10.0 mi Calm Calm - N/A   Scattered Clouds
5:55 PM 49.8 °F - 48.6 °F 95% 30.02 in 10.0 mi North 3.5 mph - N/A   Scattered Clouds
6:55 PM 48.9 °F - 48.4 °F 98% 30.01 in 10.0 mi Calm Calm - N/A   Partly Cloudy
7:55 PM 46.8 °F - 46.8 °F 100% 29.99 in 4.0 mi Calm Calm - N/A   Scattered Clouds
8:01 PM 46.4 °F - 46.4 °F 100% 29.99 in 2.0 mi Calm Calm - N/A   Scattered Clouds
8:02 PM 46.4 °F - 46.4 °F 100% 29.99 in 1.5 mi Calm Calm - N/A   Scattered Clouds
8:03 PM 46.4 °F - 46.4 °F 100% 29.99 in 1.2 mi Calm Calm - N/A   Scattered Clouds
8:06 PM 46.4 °F - 46.4 °F 100% 29.99 in 1.0 mi Calm Calm - N/A   Scattered Clouds
8:10 PM 46.4 °F - 46.4 °F 100% 29.99 in 1.2 mi Calm Calm - N/A   Mostly Cloudy
8:11 PM 46.4 °F - 46.4 °F 100% 29.99 in 1.5 mi Calm Calm - N/A   Mostly Cloudy
8:12 PM 46.4 °F - 46.4 °F 100% 29.99 in 1.8 mi Calm Calm - N/A   Mostly Cloudy
8:13 PM 44.6 °F - 44.6 °F 100% 29.99 in 2.0 mi Calm Calm - N/A   Mostly Cloudy
8:14 PM 44.6 °F - 44.6 °F 100% 29.99 in 2.5 mi Calm Calm - N/A   Mostly Cloudy
8:15 PM 44.6 °F - 44.6 °F 100% 29.99 in 2.0 mi Calm Calm - N/A   Mostly Cloudy
8:16 PM 44.6 °F - 44.6 °F 100% 29.99 in 1.5 mi Calm Calm - N/A   Mostly Cloudy
8:17 PM 44.6 °F - 44.6 °F 100% 29.99 in 1.2 mi Calm Calm - N/A   Mostly Cloudy
8:18 PM 44.6 °F - 44.6 °F 100% 29.99 in 1.0 mi Calm Calm - N/A   Mostly Cloudy
8:19 PM 44.6 °F - 44.6 °F 100% 29.99 in 0.8 mi Calm Calm - N/A   Mostly Cloudy
8:22 PM 44.6 °F - 44.6 °F 100% 29.99 in 0.5 mi Calm Calm - N/A Fog Fog
8:32 PM 44.6 °F - 44.6 °F 100% 29.99 in 0.2 mi Calm Calm - N/A Fog Fog
8:45 PM 44.6 °F - 44.6 °F 100% 29.99 in 0.5 mi Calm Calm - N/A Fog Fog
8:51 PM 46.4 °F - 46.4 °F 100% 29.99 in 0.8 mi Calm Calm - N/A   Clear
8:53 PM 46.4 °F - 46.4 °F 100% 29.99 in 1.0 mi Calm Calm - N/A   Clear
8:54 PM 46.4 °F - 46.4 °F 100% 29.99 in 1.2 mi Calm Calm - N/A   Clear
8:55 PM 45.9 °F - 45.9 °F 100% 29.99 in 1.5 mi Calm Calm - N/A   Clear
8:56 PM 46.4 °F - 46.4 °F 100% 29.99 in 1.8 mi Calm Calm - N/A   Clear
8:58 PM 46.4 °F - 46.4 °F 100% 29.99 in 2.0 mi Calm Calm - N/A   Clear
8:59 PM 46.4 °F - 46.4 °F 100% 29.99 in 2.5 mi Calm Calm - N/A   Clear
9:02 PM 44.6 °F - 44.6 °F 100% 29.99 in 2.0 mi Calm Calm - N/A   Partly Cloudy
9:04 PM 44.6 °F - 44.6 °F 100% 29.99 in 1.5 mi Calm Calm - N/A   Partly Cloudy
9:05 PM 44.6 °F - 44.6 °F 100% 29.99 in 1.2 mi Calm Calm - N/A   Partly Cloudy
9:06 PM 44.6 °F - 44.6 °F 100% 29.99 in 1.0 mi Calm Calm - N/A   Partly Cloudy
9:08 PM 44.6 °F - 44.6 °F 100% 29.99 in 0.8 mi Calm Calm - N/A   Partly Cloudy
9:19 PM 44.6 °F 42.2 °F 44.6 °F 100% 30.00 in 1.0 mi West 4.6 mph - N/A   Partly Cloudy
9:24 PM 44.6 °F 43.1 °F 44.6 °F 100% 30.00 in 1.2 mi West 3.5 mph - N/A   Partly Cloudy
9:26 PM 44.6 °F 43.1 °F 44.6 °F 100% 30.00 in 1.5 mi West 3.5 mph - N/A   Light Drizzle
9:30 PM 44.6 °F 40.2 °F 44.6 °F 100% 30.01 in 1.8 mi West 8.1 mph - N/A   Light Drizzle
9:37 PM 44.6 °F 43.1 °F 44.6 °F 100% 30.00 in 2.0 mi West 3.5 mph - N/A   Light Drizzle
9:39 PM 44.6 °F 43.1 °F 44.6 °F 100% 30.00 in 2.5 mi WNW 3.5 mph - N/A   Light Drizzle
9:41 PM 44.6 °F - 44.6 °F 100% 30.00 in 2.0 mi Calm Calm - N/A Rain Light Rain
9:45 PM 44.6 °F 43.1 °F 44.6 °F 100% 30.00 in 1.8 mi WNW 3.5 mph - N/A Rain Light Rain
9:49 PM 44.6 °F 43.1 °F 44.6 °F 100% 30.00 in 1.5 mi NW 3.5 mph - N/A Rain Light Rain
9:55 PM 43.9 °F - 43.9 °F 100% 29.99 in 1.2 mi Calm Calm - 0.00 in Rain Light Rain
9:56 PM 44.6 °F - 44.6 °F 100% 29.99 in 1.2 mi Calm Calm - N/A   Partly Cloudy
10:01 PM 44.6 °F - 44.6 °F 100% 29.99 in 1.5 mi Calm Calm - N/A   Partly Cloudy
10:05 PM 44.6 °F 43.1 °F 44.6 °F 100% 29.99 in 1.8 mi East 3.5 mph - N/A   Partly Cloudy
10:08 PM 44.6 °F - 44.6 °F 100% 29.99 in 2.0 mi Calm Calm - N/A   Scattered Clouds
10:12 PM 44.6 °F - 44.6 °F 100% 29.99 in 2.5 mi Calm Calm - N/A   Partly Cloudy
10:13 PM 44.6 °F - 44.6 °F 100% 29.99 in 2.0 mi Calm Calm - N/A   Partly Cloudy
10:15 PM 44.6 °F - 44.6 °F 100% 29.99 in 1.8 mi Calm Calm - N/A   Partly Cloudy
10:16 PM 44.6 °F - 44.6 °F 100% 29.99 in 1.5 mi Calm Calm - N/A   Scattered Clouds
10:21 PM 44.6 °F - 44.6 °F 100% 29.98 in 1.2 mi Calm Calm - N/A   Scattered Clouds
10:29 PM 44.6 °F - 44.6 °F 100% 29.99 in 1.0 mi Calm Calm - N/A   Scattered Clouds
10:33 PM 44.6 °F - 44.6 °F 100% 29.99 in 1.0 mi Calm Calm - N/A   Light Drizzle
10:38 PM 44.6 °F - 44.6 °F 100% 29.99 in 1.2 mi Calm Calm - N/A Rain Light Rain
10:42 PM 44.6 °F 41.4 °F 44.6 °F 100% 29.99 in 1.0 mi West 5.8 mph - N/A Rain Light Rain
10:47 PM 44.6 °F - 44.6 °F 100% 29.99 in 0.8 mi Calm Calm - N/A   Light Drizzle
10:52 PM 44.6 °F - 44.6 °F 100% 29.99 in 1.0 mi Calm Calm - N/A   Light Drizzle
10:55 PM 43.9 °F 39.9 °F 43.9 °F 100% 29.99 in 1.0 mi West 6.9 mph - 0.00 in   Partly Cloudy
10:57 PM 44.6 °F 41.4 °F 44.6 °F 100% 29.99 in 1.0 mi WSW 5.8 mph - N/A Rain Light Rain
10:58 PM 44.6 °F 41.4 °F 44.6 °F 100% 30.00 in 1.2 mi WSW 5.8 mph - N/A Rain Light Rain
11:01 PM 44.6 °F 41.4 °F 44.6 °F 100% 29.99 in 1.5 mi West 5.8 mph - N/A Rain Light Rain
11:03 PM 44.6 °F 41.4 °F 44.6 °F 100% 29.99 in 1.8 mi West 5.8 mph - N/A Rain Light Rain
11:04 PM 44.6 °F 40.2 °F 44.6 °F 100% 29.99 in 2.0 mi West 8.1 mph - N/A Rain Light Rain
11:05 PM 44.6 °F 40.2 °F 44.6 °F 100% 29.99 in 2.5 mi West 8.1 mph - N/A Rain Light Rain
11:06 PM 44.6 °F 42.2 °F 44.6 °F 100% 29.99 in 3.0 mi West 4.6 mph - N/A Rain Light Rain
11:26 PM 44.6 °F - 44.6 °F 100% 29.98 in 3.0 mi Calm Calm - N/A   Scattered Clouds
11:55 PM 45.1 °F - 45.1 °F 100% 29.98 in 4.0 mi Calm Calm - 0.00 in   Overcast